This is the latest recevied weather packets stored in our database for station/object EA5FOG-11. If no packets are shown the sender has not sent any weather packets the latest 10 day(s).
| Time | Temp. | Humidity | Pressure | Rain* | Wind** | Luminosity | Snow |
|---|---|---|---|---|---|---|---|
| 1788567164 | 24.44° C | 58% | 963.3 hPa | - | - | - | - |
| 1788566263 | 24.44° C | 58% | 963.3 hPa | - | - | - | - |
| 1788565362 | 24.44° C | 58% | 963.6 hPa | - | - | - | - |
| 1788564461 | 24.44° C | 58% | 963.6 hPa | - | - | - | - |
| 1788563560 | 23.89° C | 58% | 963.5 hPa | - | - | - | - |
| 1788562659 | 24.44° C | 58% | 963.6 hPa | - | - | - | - |
| 1788561759 | 24.44° C | 57% | 963.5 hPa | - | - | - | - |
| 1788560858 | 24.44° C | 57% | 963.6 hPa | - | - | - | - |
| 1788559957 | 24.44° C | 56% | 963.6 hPa | - | - | - | - |
| 1788559056 | 25° C | 55% | 963.6 hPa | - | - | - | - |
| 1788558155 | 25.56° C | 55% | 963.6 hPa | - | - | - | - |
| 1788557255 | 26.11° C | 54% | 963.6 hPa | - | - | - | - |
| 1788556354 | 26.11° C | 54% | 963.7 hPa | - | - | - | - |
| 1788555453 | 26.11° C | 53% | 963.7 hPa | - | - | - | - |
| 1788554552 | 26.67° C | 53% | 963.7 hPa | - | - | - | - |
| 1788553651 | 27.22° C | 52% | 963.7 hPa | - | - | - | - |
| 1788552751 | 27.22° C | 51% | 963.6 hPa | - | - | - | - |
| 1788551850 | 27.78° C | 51% | 963.4 hPa | - | - | - | - |
| 1788550949 | 27.78° C | 50% | 963.2 hPa | - | - | - | - |
| 1788549165 | 28.33° C | 48% | 962.8 hPa | - | - | - | - |
| 1788548264 | 28.89° C | 48% | 962.6 hPa | - | - | - | - |
| 1788547364 | 28.89° C | 47% | 962.4 hPa | - | - | - | - |
| 1788546463 | 29.44° C | 46% | 962.2 hPa | - | - | - | - |
| 1788545562 | 30° C | 44% | 962.2 hPa | - | - | - | - |
| 1788544661 | 31.11° C | 43% | 962.1 hPa | - | - | - | - |
* Rain since midnight (hover to see other rain measurements)
** Current wind speed in m/s (hover to see current wind gust speed)